Location: Capelle
(50.3413°N, 1.9974°E)
Time: 14:39:56
(UTC+00:00)

USA 238 - Pass Details

Date: 12 January 2026
Orbit: 883 x 1328 km, 63.4° (Epoch: 10 January)

Event Time Altitude Azimuth Distance (km) Brightness Sun altitude
Rises 18:36:58 0° 316° (NW) 3,945 7.2 -22.1°
Reaches altitude 10° 18:39:34 10° 314° (NW) 3,045 6.6 -22.6°
Maximum altitude 18:46:52 69° 233° (SW) 1,310 4.2 -23.7°
Drops below altitude 10° 18:54:50 10° 153° (SSE) 3,305 6.0 -25.0°
Enters shadow 18:56:25 - 151° (SSE) 3,845 6.4 -25.2°
